Date,TemperatureHighF,TemperatureAvgF,TemperatureLowF,DewpointHighF,DewpointAvgF,DewpointLowF,HumidityHigh,HumidityAvg,HumidityLow,PressureMaxIn,PressureMinIn,WindSpeedMaxMPH,WindSpeedAvgMPH,GustSpeedMaxMPH,PrecipitationSumIn
2012-1-1,57.7,47.1,39.6,43.5,36.4,30.2,80,67,54,30.12,30.01,6,1,6,0.00
2012-1-2,57.7,48.1,41.5,47.1,39.4,32.8,85,72,59,30.17,30.04,6,1,6,0.00
2012-1-3,61.2,49.8,43.3,42.7,38.3,34.1,79,65,45,30.24,30.12,8,1,8,0.00
2012-1-4,61.9,49.7,40.8,43.6,36.8,31.0,74,62,46,30.26,30.13,5,1,5,0.00
2012-1-5,62.4,49.5,39.7,42.8,35.2,30.0,75,59,36,30.17,29.99,5,1,5,0.00
2012-1-6,58.5,48.7,39.6,41.1,34.8,28.8,76,59,46,30.04,29.95,8,1,8,0.00
2012-1-7,63.9,53.9,40.5,35.2,22.3,9.0,68,35,12,30.07,29.96,25,8,25,0.00
2012-1-8,60.3,49.8,39.6,36.8,29.1,20.1,59,45,30,30.12,30.03,6,1,6,0.00
2012-1-9,61.2,47.7,37.9,39.9,33.0,26.9,70,57,40,30.14,30.01,5,1,5,0.00
2012-1-10,61.2,48.0,39.6,38.1,31.5,27.4,70,54,31,30.06,29.94,8,2,8,0.00
2012-1-11,60.1,46.8,37.0,36.5,30.5,24.8,66,54,35,30.02,29.88,6,1,6,0.00
2012-1-12,61.2,47.8,38.3,35.2,27.5,19.8,67,48,21,30.01,29.91,8,2,8,0.00
2012-1-13,62.6,47.9,37.9,32.0,27.1,22.9,63,46,23,30.13,30.00,8,1,8,0.00
2012-1-14,61.5,47.1,37.0,33.1,28.0,24.1,63,49,29,30.07,29.94,4,1,4,0.00
2012-1-15,56.3,47.0,41.0,39.8,32.4,26.3,76,57,49,29.97,29.84,18,5,18,0.00
2012-1-18,41.0,40.6,40.3,21.8,20.3,18.7,46,44,41,30.18,30.18,2,1,16,0.00
2012-1-19,48.0,45.2,41.2,38.0,27.7,20.4,78,52,36,30.18,29.95,7,2,10,0.08
2012-1-20,52.3,48.4,44.4,51.2,43.9,37.8,96,84,76,29.97,29.57,18,5,18,1.24
2012-1-21,58.8,52.5,45.7,52.2,40.5,30.1,97,66,36,30.01,29.56,17,6,17,0.14
2012-1-22,51.8,47.9,44.6,43.8,38.1,33.7,82,69,57,30.04,29.74,20,5,20,0.22
2012-1-23,55.9,49.4,45.1,46.3,43.6,38.0,90,81,64,30.03,29.56,22,6,22,0.86
2012-1-24,55.6,48.0,43.0,47.7,41.1,37.0,89,78,57,30.29,30.03,7,1,7,0.00
2012-1-25,61.5,52.9,45.9,47.0,43.8,39.4,86,72,53,30.32,30.18,9,2,9,0.00
2012-1-26,63.0,54.8,48.7,55.1,48.9,41.7,89,80,71,30.20,30.08,12,4,12,0.00
2012-1-27,63.3,53.8,47.1,49.2,32.0,22.4,84,47,22,30.14,30.04,14,6,14,0.00
2012-1-28,60.6,49.6,39.0,43.9,34.5,26.2,72,57,43,30.24,30.10,7,1,7,0.00
2012-1-29,63.0,51.9,43.3,41.8,38.2,33.8,72,61,40,30.15,29.97,6,1,6,0.00
2012-1-30,61.0,53.6,46.8,44.7,40.5,37.1,73,62,44,29.99,29.85,8,2,8,0.00
2012-1-31,59.2,51.7,46.2,46.9,42.3,37.5,86,71,51,30.03,29.90,9,3,9,0.00
2012-2-1,61.3,53.6,48.0,49.7,43.5,40.3,82,69,53,30.16,30.03,8,4,8,0.00
2012-2-2,64.8,53.0,46.2,42.2,35.4,23.6,73,54,21,30.09,29.83,11,4,11,0.00
2012-2-3,60.8,50.0,41.0,43.3,36.4,31.4,76,60,45,29.96,29.86,7,2,7,0.00
2012-2-4,63.1,51.3,42.3,36.3,32.0,26.2,68,50,25,29.99,29.91,6,2,6,0.00
2012-2-5,64.0,51.8,43.0,35.6,31.1,25.1,66,47,24,30.00,29.85,7,2,7,0.00
2012-2-6,62.4,51.8,43.2,38.0,33.3,28.2,67,51,28,29.88,29.64,7,1,7,0.00
2012-2-7,57.4,53.8,51.1,52.5,46.5,37.8,87,76,58,29.98,29.66,6,1,6,0.25
2012-2-8,64.9,55.5,48.9,50.7,45.1,40.6,88,69,49,30.11,29.97,12,3,12,0.00
2012-2-9,67.5,56.0,46.4,48.1,43.8,37.9,76,65,46,30.16,29.99,10,1,10,0.00
2012-2-10,66.2,55.9,47.1,49.4,44.3,38.0,79,66,40,30.05,29.92,12,3,12,0.00
2012-2-11,61.3,54.7,50.7,48.8,44.6,39.4,82,70,48,29.93,29.83,10,2,10,0.00
2012-2-12,60.4,51.6,44.6,46.4,40.8,32.5,85,68,35,29.93,29.83,12,2,12,0.11
2012-2-13,54.7,49.2,44.2,44.6,39.4,34.5,85,70,55,29.87,29.76,9,3,9,0.14
2012-2-14,59.5,49.3,39.6,40.0,35.0,27.6,78,60,30,29.95,29.84,13,4,13,0.03
2012-2-15,59.2,53.4,44.6,37.9,19.7,9.2,66,31,14,30.01,29.85,24,10,24,0.00
2012-2-16,65.5,52.6,42.3,30.9,24.0,6.9,52,36,13,30.12,30.00,12,5,12,0.00
2012-2-17,64.0,53.5,42.8,43.1,31.3,26.0,67,44,24,30.13,29.99,6,2,6,0.00
2012-2-18,59.9,52.7,47.7,47.1,41.2,26.8,79,65,44,30.03,29.92,9,3,9,0.00
2012-2-19,60.8,51.3,45.0,36.9,24.1,11.8,63,37,15,30.00,29.88,11,5,11,0.00
2012-2-20,58.8,52.8,48.2,44.3,39.4,36.1,73,61,45,30.06,29.94,12,4,12,0.00
2012-2-21,66.6,54.9,44.4,43.8,39.0,34.5,72,56,40,30.15,30.04,6,2,6,0.00
2012-2-22,71.6,58.5,47.3,44.8,39.4,34.0,72,51,29,30.15,29.90,9,2,9,0.00
2012-2-23,71.2,61.7,53.6,41.5,13.3,-9.5,55,22,5,29.91,29.77,23,12,23,0.00
2012-2-24,70.2,59.0,47.3,37.5,24.7,11.0,48,29,13,29.98,29.83,13,4,13,0.00
2012-2-25,63.5,54.4,47.1,35.9,22.7,7.2,60,33,12,30.17,29.97,15,6,15,0.00
2012-2-26,60.3,50.8,42.8,29.7,17.3,5.8,49,28,12,30.03,29.70,12,5,12,0.00
2012-2-27,59.0,48.9,39.6,32.7,25.3,13.0,59,43,17,29.81,29.65,8,2,9,0.00
2012-2-28,56.8,49.1,41.7,36.0,29.4,22.8,65,48,29,30.08,29.80,15,5,15,0.00
2012-2-29,54.0,49.4,46.2,45.7,38.9,31.6,86,68,49,30.10,29.91,14,6,14,0.33
2012-3-1,58.8,50.4,46.2,47.4,40.3,36.8,77,68,57,30.12,30.02,16,5,16,0.00
2012-3-2,63.0,51.6,42.3,38.0,24.6,8.9,70,39,12,30.22,30.11,14,6,14,0.00
2012-3-3,66.9,53.8,41.4,37.4,31.9,26.5,63,46,23,30.22,30.08,7,1,7,0.00
2012-3-4,72.0,57.5,45.1,42.4,36.2,29.3,68,48,21,30.11,29.89,8,2,8,0.00
2012-3-5,72.0,57.6,46.0,45.9,38.1,28.8,69,50,23,29.94,29.77,12,3,12,0.00
2012-3-6,60.6,53.6,46.8,43.1,11.1,-17.2,77,28,5,29.91,29.74,23,10,23,0.00
2012-3-7,64.8,52.8,41.4,23.3,5.7,-11.5,36,18,5,30.03,29.91,17,8,17,0.00
2012-3-8,66.7,54.0,41.0,30.5,21.5,10.2,52,31,11,30.17,30.02,7,1,7,0.00
2012-3-9,71.1,56.7,43.3,35.7,27.3,10.1,59,36,10,30.19,29.94,7,2,7,0.00
2012-3-10,67.3,54.4,46.2,43.3,36.2,27.9,68,51,31,29.94,29.79,19,7,19,0.00
2012-3-11,62.2,54.0,48.7,43.4,38.1,30.8,69,56,39,29.92,29.84,14,6,14,0.00
2012-3-12,62.8,53.2,43.3,39.9,33.7,29.6,69,49,30,29.93,29.77,10,4,10,0.00
2012-3-13,56.3,55.1,53.4,50.5,44.9,36.6,85,70,49,29.87,29.73,14,6,14,0.25
2012-3-14,58.5,55.9,53.8,55.1,52.6,49.9,93,89,85,30.00,29.84,10,4,10,0.83
2012-3-15,61.9,58.4,56.8,55.8,53.1,49.9,87,83,76,30.03,29.91,8,3,8,0.03
2012-3-16,58.5,56.4,50.5,55.7,51.4,41.5,92,84,70,29.93,29.59,16,5,16,0.80
2012-3-17,53.6,49.3,45.0,43.9,40.7,35.8,82,73,54,29.62,29.41,9,3,9,0.19
2012-3-18,57.6,49.2,43.3,40.7,32.5,13.3,82,56,20,29.81,29.50,15,4,15,0.03
2012-3-19,56.3,49.1,39.9,34.7,30.4,25.9,68,50,31,29.96,29.81,7,2,7,0.00
2012-3-20,51.8,51.3,50.7,36.5,35.7,34.4,57,55,53,30.00,29.95,0,0,0,0.00
2012-3-21,56.5,55.8,55.2,47.2,46.8,46.5,73,72,71,29.83,29.81,1,0,2,0.00
2012-3-22,64.2,58.2,49.6,48.6,33.6,6.7,73,43,11,29.83,29.75,13,5,13,0.00
2012-3-23,62.4,53.5,44.6,35.8,29.4,22.4,62,42,23,29.97,29.74,12,4,12,0.00
2012-3-24,55.2,52.1,49.5,40.4,36.3,30.8,70,55,40,29.78,29.69,13,4,13,0.00
2012-3-25,59.9,52.0,46.2,44.5,40.5,34.1,82,66,39,29.77,29.65,12,3,12,0.47
2012-3-26,60.3,53.1,45.3,41.1,36.9,30.1,73,56,33,29.98,29.73,12,4,12,0.00
2012-3-27,58.5,54.2,52.0,50.4,41.4,28.7,90,63,33,29.91,29.76,12,3,12,0.97
2012-3-28,65.5,57.6,53.2,53.4,47.3,35.5,91,71,35,29.97,29.81,12,5,12,0.11
2012-3-29,63.3,57.0,49.3,50.4,45.3,41.5,78,66,50,30.00,29.91,8,2,8,0.00
2012-3-30,68.0,60.5,54.5,52.3,49.4,46.8,84,68,49,29.97,29.75,14,4,14,0.03
2012-3-31,61.7,55.9,50.0,50.2,43.8,34.6,80,65,43,29.86,29.57,30,7,30,0.33
2012-4-1,64.9,55.4,46.2,42.9,32.8,12.1,78,48,13,30.11,29.86,11,4,11,0.00
2012-4-2,68.0,57.3,48.7,39.5,35.6,30.3,59,46,25,30.09,29.87,10,5,10,0.00
2012-4-3,67.6,58.2,51.1,48.6,40.6,29.9,76,54,25,29.95,29.80,16,6,16,0.03
2012-4-4,65.5,55.0,45.0,46.4,28.5,9.6,76,41,12,30.04,29.88,14,4,14,0.00
2012-4-5,63.0,52.4,42.8,32.7,24.1,6.1,57,37,11,30.00,29.89,12,4,12,0.00
2012-4-6,64.8,53.0,41.7,34.9,26.0,6.8,64,41,11,30.14,29.99,8,2,8,0.00
2012-4-7,68.7,56.2,42.8,37.7,31.5,26.3,61,42,21,30.02,29.86,7,2,7,0.00
2012-4-8,73.0,59.5,47.8,41.0,35.2,25.2,63,43,20,29.92,29.79,10,3,10,0.00
2012-4-9,72.0,59.9,49.5,38.0,30.5,14.2,58,37,11,29.85,29.64,14,3,14,0.00
2012-4-10,59.4,56.2,53.2,51.4,44.1,34.1,80,65,44,29.77,29.66,9,3,9,0.06
2012-4-11,63.1,56.5,52.2,49.3,44.8,35.7,84,67,37,29.85,29.65,15,5,15,0.28
2012-4-12,60.8,53.5,50.0,48.8,44.6,34.9,86,73,38,29.90,29.70,16,5,16,1.11
2012-4-13,59.9,53.0,48.7,46.4,42.5,36.4,86,69,45,29.72,29.57,11,4,11,0.56
2012-4-14,67.8,57.9,47.7,44.6,41.1,36.4,78,56,34,29.94,29.70,10,4,10,0.42
2012-4-15,71.8,60.5,50.5,48.1,43.4,38.2,74,55,36,30.06,29.94,8,4,8,0.00
2012-4-16,72.3,60.8,52.7,43.8,36.3,1.1,59,44,6,30.07,29.97,10,4,10,0.00
2012-4-17,72.5,61.5,52.5,52.4,43.4,28.4,75,54,20,30.00,29.86,13,5,13,0.00
2012-4-18,74.3,63.0,54.0,49.7,46.0,40.9,74,56,31,29.97,29.87,10,4,10,0.00
2012-4-19,81.9,69.2,57.6,53.7,50.0,46.3,74,53,29,29.98,29.83,12,4,12,0.00
2012-4-20,87.3,75.3,62.1,55.3,51.3,42.1,69,46,22,29.88,29.73,9,4,9,0.00
2012-4-21,88.7,76.1,63.0,58.5,52.2,42.4,61,46,21,29.80,29.63,8,2,8,0.00
2012-4-22,90.3,75.3,62.8,59.7,54.9,47.6,71,52,25,29.71,29.58,9,3,9,0.00
2012-4-23,73.0,64.1,57.6,50.1,48.3,45.0,72,57,43,29.82,29.66,17,9,17,0.00
2012-4-24,74.8,66.5,59.4,51.8,49.2,45.8,72,55,37,29.90,29.75,10,4,10,0.00
2012-4-25,68.9,64.1,60.8,58.8,52.8,46.8,82,67,56,29.83,29.61,10,3,10,0.44
2012-4-26,64.9,59.8,54.0,56.2,48.4,34.0,87,68,32,30.01,29.61,15,7,15,0.08
2012-4-27,73.9,61.6,49.8,43.8,33.0,1.7,73,41,6,30.06,29.92,14,4,14,0.00
2012-4-28,82.0,67.7,52.3,50.9,39.1,24.0,63,40,12,29.92,29.65,14,4,14,0.00
2012-4-29,83.8,70.6,57.2,52.6,44.2,24.6,72,44,12,29.75,29.63,7,2,7,0.00
2012-4-30,82.8,70.4,62.1,51.8,47.4,39.9,60,45,22,29.77,29.62,14,5,14,0.00
2012-5-1,75.2,64.1,53.6,47.1,40.7,30.2,66,45,20,29.73,29.63,13,5,13,0.00
2012-5-2,71.4,60.4,52.0,44.8,38.9,30.2,63,46,24,29.77,29.68,14,6,14,0.00
2012-5-3,65.3,58.4,52.7,49.6,45.0,38.7,73,61,53,29.91,29.74,15,8,15,0.00
2012-5-4,72.0,61.9,52.7,48.8,43.3,36.8,75,53,29,30.00,29.91,10,5,10,0.00
2012-5-5,78.3,66.5,54.1,42.3,20.9,-1.5,57,24,5,30.03,29.82,23,9,23,0.00
2012-5-6,84.7,71.9,58.8,34.3,18.2,1.3,35,17,5,29.88,29.76,14,6,14,0.00
2012-5-7,88.7,73.3,58.1,41.3,25.6,3.3,48,23,5,29.85,29.69,14,4,14,0.00
2012-5-8,88.7,74.1,57.9,45.6,30.7,6.3,59,28,5,29.78,29.64,7,2,7,0.00
2012-5-9,87.6,73.5,61.3,47.2,40.0,24.0,50,33,10,29.76,29.61,14,4,14,0.00
2012-5-10,85.8,72.2,58.1,45.9,24.7,1.6,58,25,5,29.73,29.59,13,4,13,0.00
2012-5-11,89.8,75.1,61.7,35.1,23.3,5.0,35,18,5,29.73,29.63,10,4,10,0.00
2012-5-12,90.9,74.3,60.1,46.3,35.5,9.7,54,30,5,29.84,29.72,9,3,9,0.00
2012-5-13,75.6,65.5,56.3,49.2,43.7,40.7,59,46,30,29.85,29.75,16,8,16,0.00
2012-5-14,73.9,64.3,55.6,46.1,42.3,34.1,67,47,24,29.95,29.81,14,6,14,0.00
2012-5-15,81.0,67.1,57.6,50.4,45.5,40.5,68,48,25,29.87,29.73,10,5,10,0.00
2012-5-16,82.2,67.3,55.2,54.9,48.5,43.3,75,53,30,29.87,29.67,13,6,13,0.00
2012-5-17,77.2,65.0,57.0,47.9,44.5,40.1,67,49,30,29.72,29.59,16,8,16,0.00
2012-5-18,84.7,69.5,55.2,47.3,31.9,4.2,68,34,5,29.77,29.65,12,5,12,0.00
2012-5-19,83.1,65.5,57.6,48.1,42.4,31.8,58,45,16,29.80,29.71,7,3,7,0.00
2012-5-20,90.5,78.4,61.3,47.8,38.5,17.5,54,28,7,29.80,29.65,11,5,11,0.00
2012-5-21,81.9,69.4,59.0,50.9,45.8,39.7,63,45,23,29.86,29.75,14,6,14,0.00
2012-5-22,83.7,70.2,60.1,53.4,46.1,34.6,72,46,18,29.91,29.76,13,4,13,0.00
2012-5-23,82.4,70.3,57.4,44.9,29.5,2.5,59,31,5,29.83,29.65,17,4,17,0.00
2012-5-24,79.9,69.2,58.8,42.9,32.3,7.3,54,29,7,29.69,29.43,20,6,20,0.00
2012-5-25,70.3,61.7,53.1,48.6,33.2,21.5,67,37,17,29.64,29.49,10,4,10,0.00
2012-5-26,74.1,63.1,54.3,48.3,43.6,34.5,69,51,25,29.89,29.63,13,6,13,0.03
2012-5-27,76.5,63.9,54.5,48.1,43.1,31.6,70,50,20,29.98,29.84,13,5,13,0.00
2012-5-28,73.4,63.6,56.1,48.4,42.0,34.6,72,47,26,29.90,29.79,14,7,14,0.00
2012-5-29,81.3,66.7,53.2,47.5,41.5,28.8,71,44,16,29.89,29.76,10,5,10,0.00
2012-5-30,89.4,72.6,57.6,51.0,41.2,16.7,66,38,7,29.90,29.74,10,4,10,0.00
2012-5-31,93.2,76.8,61.9,53.0,40.9,11.5,54,33,5,29.83,29.59,10,3,10,0.00
2012-6-1,95.0,79.5,67.1,53.8,46.3,29.4,55,34,11,29.65,29.47,13,4,13,0.00
2012-6-2,87.8,75.6,65.1,54.7,48.2,39.8,58,39,25,29.71,29.55,16,6,16,0.00
2012-6-3,85.6,68.5,60.6,45.4,41.9,18.5,56,42,19,29.75,29.59,16,6,16,0.00
2012-6-4,68.4,63.1,56.3,54.6,46.8,39.4,77,56,41,29.91,29.70,18,7,18,0.00
2012-6-5,73.4,63.0,51.8,41.7,31.2,12.5,63,36,10,30.02,29.91,12,5,12,0.00
2012-6-6,80.6,68.6,58.3,41.7,30.8,2.6,47,29,5,29.92,29.72,14,6,14,0.00
2012-6-7,83.5,69.9,58.8,47.2,42.1,34.6,57,39,18,29.82,29.70,14,6,14,0.00
2012-6-8,82.8,69.8,59.2,47.7,38.1,20.3,62,36,11,29.79,29.65,17,6,17,0.00
2012-6-9,80.8,69.6,57.7,41.4,18.0,-2.1,53,21,5,29.82,29.65,23,10,23,0.00
2012-6-10,89.2,76.4,64.0,36.2,20.2,4.2,26,15,5,29.73,29.64,16,7,16,0.00
2012-6-11,93.6,78.4,62.2,46.9,27.2,5.5,50,21,5,29.75,29.64,11,3,11,0.00
2012-6-12,93.0,77.9,64.4,49.8,41.0,10.8,53,32,5,29.75,29.59,11,4,11,0.00
2012-6-13,93.2,76.2,62.4,52.0,45.8,30.5,57,37,11,29.67,29.47,12,5,12,0.00
2012-6-14,91.9,75.7,62.1,50.6,41.5,24.6,55,33,10,29.59,29.47,14,5,14,0.00
2012-6-15,94.8,78.0,61.7,46.3,33.4,12.0,50,26,5,29.60,29.49,10,5,10,0.00
2012-6-16,100.6,84.9,68.2,55.1,36.8,12.9,57,26,5,29.63,29.50,10,3,10,0.00
2012-6-17,94.8,81.2,67.5,53.8,44.2,13.1,49,31,5,29.62,29.51,18,6,18,0.00
2012-6-18,81.5,69.3,59.4,49.0,45.6,40.0,67,45,26,29.70,29.55,15,9,15,0.00
2012-6-19,89.8,73.8,58.8,49.8,36.3,6.3,62,34,5,29.71,29.56,9,4,9,0.00
2012-6-20,93.7,79.1,64.9,47.2,31.4,8.4,52,24,5,29.65,29.51,9,4,9,0.00
2012-6-21,73.6,66.1,57.2,48.0,44.3,40.0,61,46,31,29.71,29.55,22,11,22,0.00
2012-6-22,72.3,63.5,54.1,49.6,46.4,43.7,69,55,42,29.75,29.67,14,8,14,0.00
2012-6-23,75.0,64.3,54.5,48.4,38.9,21.5,75,45,14,29.74,29.66,13,7,13,0.00
2012-6-24,76.3,64.7,54.7,44.8,32.8,6.7,65,38,7,29.84,29.74,13,6,13,0.00
2012-6-25,75.4,64.9,55.8,45.1,41.4,34.5,65,44,23,29.91,29.78,16,7,16,0.00
2012-6-26,81.0,68.7,56.3,48.4,37.4,2.7,67,40,5,29.88,29.66,12,4,12,0.00
2012-6-27,86.4,72.4,58.3,48.8,32.3,4.0,63,32,5,29.73,29.63,10,4,10,0.00
2012-6-28,87.1,72.6,61.5,49.6,42.0,24.1,58,37,11,29.82,29.70,15,6,15,0.00
2012-6-29,83.1,70.9,60.4,53.7,49.1,43.0,71,49,25,29.87,29.74,13,6,13,0.00
2012-6-30,86.9,73.4,63.1,56.6,53.2,49.7,68,51,32,29.80,29.65,14,6,14,0.00
2012-7-1,83.8,72.4,63.1,56.9,54.2,48.9,73,55,31,29.75,29.62,12,6,12,0.00
2012-7-2,88.7,73.9,62.8,57.7,51.9,42.2,73,49,21,29.69,29.56,16,7,16,0.00
2012-7-3,90.1,74.6,61.2,52.9,45.4,25.8,61,40,10,29.70,29.54,9,4,9,0.00
2012-7-4,90.0,75.4,63.9,55.0,46.4,26.9,57,38,11,29.63,29.54,13,5,13,0.00
2012-7-5,82.9,68.8,57.9,50.1,45.2,38.5,71,46,22,29.75,29.61,15,7,15,0.00
2012-7-6,89.1,72.6,58.1,51.9,42.4,8.9,70,41,5,29.82,29.69,8,4,8,0.00
2012-7-7,94.8,79.0,63.3,49.6,31.5,3.3,55,25,5,29.78,29.64,9,3,9,0.00
2012-7-8,93.0,76.6,62.1,50.1,40.5,16.0,56,31,6,29.77,29.67,10,5,10,0.00
2012-7-9,92.3,75.2,61.2,49.4,38.7,9.7,59,34,5,29.81,29.67,9,5,9,0.00
2012-7-10,97.3,79.5,61.9,50.4,34.8,9.7,59,28,5,29.75,29.55,7,3,7,0.00
2012-7-11,100.6,83.6,66.4,50.4,33.8,9.7,49,23,5,29.69,29.51,8,2,8,0.00
2012-7-12,98.4,82.0,68.2,52.8,42.8,18.8,49,29,6,29.60,29.49,11,4,11,0.00
2012-7-13,82.6,70.4,59.4,49.5,46.7,42.6,69,44,25,29.68,29.55,18,8,18,0.00
2012-7-14,83.5,69.0,56.7,54.4,49.9,46.0,77,54,29,29.76,29.61,13,6,13,0.00
2012-7-15,90.7,73.1,59.9,56.8,49.0,32.2,68,46,13,29.70,29.52,12,5,12,0.00
2012-7-16,73.8,65.0,58.5,51.4,48.2,42.4,75,56,34,29.69,29.57,20,10,20,0.00
2012-7-17,73.2,65.2,59.9,50.2,48.4,44.8,69,56,38,29.82,29.69,14,7,14,0.00
2012-7-18,82.9,70.1,58.3,51.2,47.1,42.0,68,46,25,29.83,29.72,10,4,10,0.00
2012-7-19,82.8,70.0,60.8,54.0,47.0,29.5,70,47,15,29.85,29.75,12,6,12,0.00
2012-7-20,91.2,75.3,61.3,55.4,43.8,9.2,72,42,5,29.88,29.71,9,4,9,0.00
2012-7-21,97.5,81.4,65.5,56.3,40.3,13.5,60,31,5,29.77,29.60,8,3,8,0.00
2012-7-22,98.1,82.0,66.6,54.2,42.6,14.4,56,30,5,29.67,29.54,9,3,9,0.00
2012-7-23,87.3,75.1,64.4,53.4,45.8,24.5,62,39,11,29.69,29.58,16,7,16,0.00
2012-7-24,88.2,73.4,60.4,50.2,42.1,7.3,65,39,5,29.76,29.63,9,6,9,0.00
2012-7-25,88.0,72.8,61.3,50.4,42.4,7.2,60,39,5,29.78,29.64,12,6,12,0.00
2012-7-26,83.1,69.5,58.3,50.2,46.3,33.6,69,47,17,29.77,29.65,14,6,14,0.00
2012-7-27,84.2,69.6,57.7,52.5,47.4,32.7,73,49,16,29.80,29.69,12,6,12,0.00
2012-7-28,88.2,72.9,59.4,54.7,47.4,28.7,74,45,12,29.83,29.70,13,5,13,0.00
2012-7-29,89.8,74.3,60.3,53.9,46.1,22.6,69,42,9,29.82,29.67,10,4,10,0.00
2012-7-30,94.6,78.4,63.0,54.4,40.9,12.2,60,34,5,29.77,29.60,7,3,7,0.00
2012-7-31,77.6,74.0,71.6,49.5,47.0,44.6,44,38,32,29.69,29.65,4,1,4,0.00
2012-8-7,93.7,79.6,65.5,48.5,34.8,11.3,50,24,5,29.81,29.69,6,2,8,0.00
2012-8-8,95.4,81.5,62.8,51.3,36.1,12.1,57,27,5,29.81,29.63,8,3,8,0.00
2012-8-9,97.9,81.5,65.5,52.5,35.9,9.7,56,27,5,29.73,29.55,7,2,7,0.00
2012-8-10,98.4,82.4,66.7,53.8,38.2,12.5,56,27,5,29.63,29.46,7,2,7,0.00
2012-8-11,100.2,82.8,64.9,52.9,35.8,9.7,58,26,5,29.58,29.45,9,2,9,0.00
2012-8-12,97.3,81.5,65.1,51.1,33.9,7.7,49,24,5,29.62,29.50,8,3,9,0.00
2012-8-13,99.7,83.5,68.9,50.2,33.2,9.7,49,22,5,29.62,29.48,8,3,8,0.00
2012-8-14,93.0,80.0,70.0,50.4,39.2,22.2,46,25,8,29.57,29.47,11,4,11,0.00
2012-8-15,91.8,77.0,65.7,52.5,41.6,9.7,56,34,5,29.62,29.51,10,5,10,0.00
2012-8-16,93.4,76.0,62.6,51.0,41.6,12.0,59,34,5,29.73,29.59,9,4,9,0.00
2012-8-17,90.1,75.1,62.2,52.0,44.3,25.9,59,37,10,29.77,29.62,10,4,10,0.00
2012-8-18,92.1,77.3,67.5,50.7,43.9,29.1,50,33,11,29.73,29.59,9,4,9,0.00
2012-8-19,89.2,74.4,62.8,52.2,45.6,36.3,59,39,17,29.73,29.59,9,4,9,0.00
2012-8-20,90.9,75.0,61.9,54.6,45.6,26.2,60,39,10,29.71,29.53,8,3,8,0.00
2012-8-21,87.8,73.4,61.0,52.3,46.6,40.8,62,41,20,29.70,29.55,9,4,9,0.00
2012-8-22,88.9,73.1,60.8,55.3,48.3,37.6,66,45,17,29.70,29.59,10,4,10,0.00
2012-8-23,87.4,72.9,60.6,54.6,47.0,25.4,69,44,11,29.73,29.58,10,4,10,0.00
2012-8-24,90.1,73.2,60.8,53.9,41.9,6.9,65,40,5,29.71,29.56,10,4,10,0.00
2012-8-25,82.8,68.8,58.5,51.2,46.1,37.3,67,47,21,29.66,29.53,14,6,14,0.00
2012-8-26,77.7,66.1,57.0,50.6,45.1,33.3,74,50,20,29.77,29.61,16,8,16,0.00
2012-8-27,86.4,71.1,58.5,51.4,41.5,6.3,70,42,5,29.87,29.71,6,2,6,0.00
2012-8-28,90.1,75.1,62.6,55.6,41.3,7.7,64,37,5,29.82,29.67,9,2,9,0.00
2012-8-29,91.4,75.8,61.0,51.2,37.1,8.7,58,32,5,29.74,29.53,7,1,7,0.00
2012-8-30,91.4,76.2,63.3,50.4,35.7,7.2,55,30,5,29.61,29.50,12,3,12,0.00
2012-8-31,73.4,64.3,58.3,51.3,48.9,45.9,74,59,39,29.75,29.59,16,8,16,0.00
2012-9-1,79.0,66.2,56.5,52.3,48.4,42.6,76,56,28,29.87,29.73,13,4,13,0.00
2012-9-2,87.8,72.3,57.6,53.5,38.2,7.3,69,38,5,29.80,29.64,6,2,6,0.00
2012-9-3,90.5,75.3,61.0,47.3,32.6,3.3,55,28,5,29.78,29.64,6,1,6,0.00
2012-9-4,91.6,75.4,60.6,47.7,33.4,4.0,55,28,5,29.81,29.67,8,3,8,0.00
2012-9-5,84.4,71.0,59.9,51.0,44.8,28.9,61,42,16,29.79,29.66,8,3,8,0.00
2012-9-6,86.0,72.3,61.3,47.8,36.0,3.1,56,33,5,29.77,29.68,10,5,10,0.00
2012-9-7,88.2,72.5,60.6,46.1,35.2,4.0,53,31,5,29.88,29.72,10,3,10,0.00
2012-9-8,86.0,72.7,62.2,48.1,40.5,20.3,52,34,9,29.83,29.67,13,4,13,0.00
2012-9-9,85.5,71.3,61.9,47.3,39.9,13.9,56,36,7,29.76,29.63,11,4,11,0.00
2012-9-10,88.2,72.6,58.5,51.0,39.4,7.3,65,37,5,29.75,29.56,7,2,7,0.00
2012-9-11,88.9,73.6,60.4,50.8,40.7,8.7,58,36,5,29.71,29.60,9,2,9,0.00
2012-9-12,88.0,74.0,62.1,53.4,45.6,27.5,59,40,12,29.85,29.69,7,3,7,0.00
2012-9-13,91.8,76.6,64.9,52.8,45.1,26.6,57,37,10,29.88,29.73,6,2,6,0.00
2012-9-14,88.3,73.9,63.1,54.6,47.6,37.6,62,42,17,29.87,29.73,8,4,8,0.00
2012-9-15,89.1,73.3,61.7,52.3,37.8,6.5,55,34,5,29.89,29.73,7,3,7,0.00
2012-9-16,88.0,72.7,59.9,47.8,34.9,3.3,56,31,5,29.83,29.70,7,2,7,0.00
2012-9-17,82.9,69.4,57.6,47.6,41.0,24.7,59,39,12,29.82,29.71,13,4,13,0.00
2012-9-18,84.0,67.6,55.4,49.3,41.7,27.6,64,42,13,29.88,29.75,10,4,10,0.00
2012-9-19,81.9,68.1,58.1,49.7,45.2,35.0,68,46,21,29.89,29.77,9,3,9,0.00
2012-9-20,83.7,68.8,57.2,50.0,42.7,29.4,64,42,15,29.85,29.72,8,3,8,0.00
2012-9-21,84.9,71.3,59.2,49.7,41.1,29.1,58,36,14,29.80,29.63,8,2,8,0.00
2012-9-22,88.5,73.8,61.0,49.1,38.7,8.4,55,33,5,29.75,29.61,6,2,6,0.00
2012-9-23,86.7,72.5,62.8,49.4,38.3,6.0,53,34,5,29.76,29.66,10,2,10,0.00
2012-9-24,83.5,69.2,57.9,48.9,41.1,12.1,67,41,7,29.77,29.63,9,3,9,0.00
2012-9-25,85.8,70.9,59.4,50.3,44.3,26.9,63,42,12,29.72,29.58,7,2,7,0.00
2012-9-26,84.6,71.5,60.8,51.4,46.4,38.9,60,43,20,29.71,29.58,8,2,8,0.00
2012-9-27,90.0,74.1,61.7,56.3,48.6,32.5,61,44,14,29.73,29.58,7,2,7,0.00
2012-9-28,84.7,71.5,61.9,53.7,47.7,40.8,61,45,22,29.73,29.60,12,3,12,0.00
2012-9-29,87.6,71.5,59.9,53.9,46.0,26.0,67,45,11,29.84,29.70,7,2,7,0.00
2012-9-30,91.0,74.9,61.9,53.7,45.2,9.9,62,40,5,29.88,29.72,7,1,7,0.00
2012-10-1,90.9,75.4,62.8,53.4,43.5,9.7,65,40,5,29.83,29.65,5,1,5,0.00
2012-10-2,91.4,76.1,64.0,52.7,44.4,10.5,61,38,5,29.72,29.55,5,1,5,0.00
2012-10-3,90.5,75.0,63.9,51.2,40.3,9.1,57,35,5,29.71,29.59,9,2,9,0.00
2012-10-4,69.3,63.9,60.4,51.9,49.3,46.3,70,59,48,29.89,29.71,17,6,17,0.00
2012-10-5,75.9,66.3,58.8,49.2,47.5,45.1,68,52,34,29.88,29.84,6,2,9,0.00
2012-10-6,74.5,66.9,58.3,51.4,46.5,41.7,69,49,32,29.90,29.75,9,3,9,0.00
2012-10-7,77.0,65.2,57.2,51.3,46.8,39.8,73,53,29,29.84,29.71,9,3,9,0.00
2012-10-8,74.7,64.7,57.0,48.4,44.4,38.9,64,49,30,29.85,29.77,12,4,12,0.00
2012-10-9,74.5,64.3,56.3,51.2,45.7,34.7,75,53,25,29.86,29.73,7,2,7,0.00
2012-10-10,76.3,64.9,55.0,50.4,44.6,35.9,69,50,24,29.79,29.65,12,3,12,0.00
2012-10-11,65.3,60.0,56.1,48.9,47.0,45.5,70,62,52,29.81,29.68,16,5,16,0.00
2012-10-12,63.9,59.6,56.8,49.5,47.1,45.0,73,64,53,30.06,29.78,7,2,7,0.00
2012-10-13,73.2,62.6,52.7,51.6,46.8,43.8,76,58,36,30.14,29.97,8,2,8,0.00
2012-10-14,76.6,66.0,56.3,54.1,50.6,46.6,71,59,36,30.05,29.87,6,1,6,0.00
2012-10-15,81.0,68.8,58.1,56.7,51.6,46.4,79,57,30,29.93,29.74,7,2,7,0.00
2012-10-16,84.2,72.2,63.9,60.9,54.6,44.7,74,56,32,29.81,29.64,6,1,6,0.00
2012-10-17,81.7,70.3,62.4,44.7,26.7,3.5,49,23,5,29.75,29.63,14,3,14,0.00
2012-10-18,83.1,69.6,59.0,56.9,46.7,34.6,66,46,21,29.82,29.70,14,2,14,0.00
2012-10-19,78.6,69.6,63.1,58.4,53.9,46.1,78,59,32,29.87,29.69,6,1,6,0.00
2012-10-20,75.2,65.0,58.3,54.8,49.4,42.7,75,58,39,29.72,29.58,8,3,8,0.00
2012-10-21,65.7,59.8,55.4,44.2,37.6,25.1,59,46,22,29.75,29.63,14,4,14,0.00
2012-10-22,61.7,57.0,54.7,54.9,47.9,41.5,87,72,49,29.77,29.59,14,5,14,0.78
2012-10-23,63.0,56.8,53.4,50.2,43.8,35.1,82,64,37,29.91,29.77,8,3,8,0.14
2012-10-24,63.1,57.5,53.8,50.2,45.8,40.1,79,66,50,30.05,29.87,7,3,7,0.11
2012-10-25,67.3,60.1,55.8,49.5,43.8,33.9,73,56,38,30.13,30.03,12,5,12,0.00
2012-10-26,70.5,59.2,50.2,44.0,36.0,28.5,60,44,22,30.07,29.91,7,3,7,0.00
2012-10-27,73.9,61.6,52.0,51.7,45.8,42.1,72,58,34,29.93,29.77,7,1,7,0.00
2012-10-28,75.6,63.7,54.1,52.2,48.7,44.9,73,60,38,29.87,29.76,5,1,5,0.00
2012-10-29,75.4,63.8,55.4,56.8,50.9,46.5,80,64,39,29.95,29.83,5,1,5,0.00
2012-10-30,73.6,62.7,54.9,56.1,50.8,46.5,81,66,47,29.93,29.77,9,2,9,0.00
2012-10-31,64.8,61.3,58.1,56.1,51.9,48.5,83,72,57,29.86,29.79,11,4,11,0.11
2012-11-1,69.4,62.8,57.9,58.3,54.2,48.2,88,75,48,29.90,29.83,5,1,5,0.22
2012-11-2,69.4,60.6,54.3,54.2,50.6,47.6,82,71,46,29.94,29.85,7,2,7,0.00
2012-11-3,71.1,60.9,53.2,54.7,49.2,45.2,80,66,42,30.02,29.90,8,1,8,0.00
2012-11-4,72.3,61.5,53.8,55.4,50.3,46.0,82,67,47,30.07,29.97,5,1,5,0.00
2012-11-5,74.8,62.9,54.0,55.8,51.2,46.2,81,67,44,30.03,29.88,5,1,5,0.00
2012-11-6,75.0,63.1,54.1,55.8,51.3,46.0,83,66,45,29.97,29.82,5,1,5,0.00
2012-11-7,71.8,60.4,52.7,58.4,50.0,45.3,86,69,47,29.88,29.72,15,4,15,0.00
2012-11-8,61.5,53.9,47.8,48.1,40.7,29.6,77,62,32,29.79,29.69,16,8,16,0.03
2012-11-9,56.8,50.8,46.6,40.8,35.9,25.9,72,58,31,29.83,29.76,7,2,7,0.00
2012-11-10,58.1,49.3,42.8,38.8,33.1,25.7,72,55,30,30.09,29.81,7,1,7,0.00
2012-11-11,57.9,47.9,40.6,35.6,32.5,27.7,69,56,33,30.24,30.09,7,1,7,0.00
2012-11-12,60.8,50.3,42.8,38.1,33.3,24.1,73,54,26,30.25,30.11,8,2,8,0.00
2012-11-13,62.1,51.6,43.2,40.4,36.7,32.3,69,58,39,30.13,29.95,7,1,7,0.00
2012-11-14,66.6,54.7,46.9,45.4,40.9,37.2,78,61,38,30.01,29.88,5,1,5,0.00
2012-11-15,62.2,53.1,45.3,45.8,41.8,35.9,76,66,52,29.92,29.81,4,0,4,0.00
2012-11-16,61.2,54.3,48.7,53.3,47.8,40.5,88,79,67,29.90,29.77,8,1,9,0.19
2012-11-17,61.5,58.1,56.1,60.0,53.7,49.7,96,85,68,29.87,29.70,13,4,13,0.72
2012-11-18,60.4,55.7,50.7,53.2,47.1,40.0,90,74,48,30.05,29.86,7,2,7,0.11
2012-11-19,65.7,58.9,53.6,50.8,47.5,43.2,86,67,45,30.11,30.01,6,1,6,0.00
2012-11-20,67.5,60.5,55.4,53.5,48.0,44.7,79,64,50,30.03,29.87,14,4,14,0.00
2012-11-21,63.5,58.8,53.4,57.6,52.9,46.6,90,81,71,30.05,29.90,7,2,7,0.33
2012-11-22,63.0,54.2,48.9,48.0,42.4,39.3,83,65,45,30.12,30.03,8,2,8,0.00
2012-11-23,63.7,52.7,45.0,49.3,42.6,35.8,87,69,50,30.15,30.02,7,1,7,0.00
2012-11-24,63.0,52.3,45.3,50.8,42.8,37.0,87,71,52,30.07,29.89,6,1,6,0.00
2012-11-25,62.6,51.6,44.1,50.1,42.5,35.9,88,72,55,29.91,29.78,5,1,5,0.00
2012-11-26,62.2,52.0,44.1,51.1,42.5,35.3,84,70,58,29.94,29.83,6,1,6,0.00
2012-11-27,59.9,52.3,46.0,50.4,45.1,39.2,88,77,65,29.99,29.88,4,0,4,0.00
2012-11-28,59.2,55.2,52.2,55.2,50.7,46.5,94,85,79,29.92,29.75,15,4,15,0.42
2012-11-29,62.1,58.7,55.2,56.7,52.4,47.6,91,80,61,29.93,29.73,17,5,17,0.25
2012-11-30,61.3,59.5,57.7,59.7,56.9,52.8,96,91,80,29.88,29.63,16,6,16,1.55
2012-12-1,64.0,60.2,57.4,59.2,56.9,52.6,95,89,79,29.89,29.72,13,5,13,0.72
2012-12-2,62.1,57.5,50.2,58.6,52.0,42.0,97,83,50,29.96,29.58,16,5,16,1.27
2012-12-3,59.7,52.8,45.5,51.6,46.5,39.7,92,79,65,30.08,29.95,6,1,6,0.03
2012-12-4,60.1,57.5,54.0,54.5,51.7,49.1,85,81,74,30.09,30.00,5,1,5,0.00
2012-12-5,58.8,57.4,56.3,56.1,54.2,52.5,92,89,85,30.05,29.97,6,2,6,0.39
2012-12-6,60.8,58.1,55.8,54.5,52.3,48.5,90,82,65,29.99,29.92,9,3,9,0.00
2012-12-7,60.6,60.6,60.6,48.8,48.8,48.8,65,65,65,29.93,29.93,6,6,6,0.00
2012-12-8,60.6,52.2,46.0,48.8,42.7,37.5,87,71,53,30.00,29.90,6,2,6,0.00
2012-12-9,59.2,49.7,42.6,41.6,38.4,35.1,82,66,44,30.06,29.96,7,1,7,0.00
2012-12-10,59.5,50.3,43.7,49.1,41.1,35.8,86,71,53,30.12,29.98,5,1,5,0.00
2012-12-11,59.2,51.2,45.0,49.7,43.2,37.0,87,74,64,29.98,29.70,13,4,13,0.00
2012-12-12,57.4,51.7,46.4,47.0,39.8,31.5,86,65,40,29.77,29.68,8,4,8,0.03
2012-12-13,54.1,47.0,41.5,41.0,36.3,31.4,79,67,53,29.82,29.71,9,2,9,0.03
2012-12-14,50.4,44.1,39.0,38.6,34.3,29.2,76,68,59,29.88,29.72,5,1,5,0.00
2012-12-15,46.4,43.0,37.8,43.0,36.9,28.5,88,79,68,29.95,29.88,2,1,3,0.22
2012-12-16,52.5,48.8,43.2,45.5,39.7,37.1,84,71,56,29.98,29.90,9,3,9,0.06
2012-12-17,58.8,52.4,46.8,54.1,48.0,39.4,97,85,68,29.92,29.82,12,5,12,0.33
2012-12-18,53.1,46.7,41.7,43.1,28.7,18.7,83,51,26,29.99,29.84,12,5,12,0.33
2012-12-19,50.0,42.4,36.1,28.8,25.2,20.0,65,51,31,30.13,29.99,5,2,5,0.00
2012-12-20,55.4,46.2,37.4,30.4,25.6,15.5,63,47,21,30.13,29.88,10,4,10,0.00
2012-12-21,53.8,48.2,44.4,43.7,32.5,22.8,81,56,39,29.88,29.75,12,6,12,0.33
2012-12-22,55.0,50.8,48.6,49.7,44.4,38.6,89,79,61,29.96,29.72,16,6,16,0.83
2012-12-23,51.8,50.5,49.6,49.6,47.2,45.4,94,88,83,29.97,29.75,18,7,18,1.08
2012-12-24,51.3,46.9,42.8,47.5,42.3,37.1,94,84,74,30.10,29.85,8,3,8,0.00
2012-12-25,48.4,45.6,41.9,45.9,42.2,36.7,92,88,79,30.03,29.69,12,3,12,0.83
2012-12-26,54.1,48.3,43.3,46.1,42.0,36.3,91,79,63,29.97,29.73,10,4,10,0.63
2012-12-27,51.6,45.4,41.0,43.2,38.6,33.3,89,77,63,30.04,29.97,8,2,8,0.00
2012-12-28,47.8,43.3,38.1,39.6,36.2,30.7,85,76,70,30.03,29.99,6,2,6,0.00
2012-12-29,51.8,45.7,41.0,38.8,36.8,32.7,80,71,55,29.99,29.90,11,4,11,0.00
2012-12-30,53.6,45.1,38.3,40.9,31.8,22.6,87,62,36,29.99,29.92,13,6,13,0.00
2012-12-31,50.9,43.7,37.4,32.2,28.0,24.3,67,54,44,30.14,29.99,9,3,9,0.00
2013-1-1,51.8,42.8,37.4,33.7,29.9,25.7,76,61,37,30.13,30.10,9,3,9,0.00